{"data":{"norad_id":57735,"intl_designator":"2023-131D","name":"STARLINK-30371","alt_names":[],"object_type":"PAYLOAD","status":"ACTIVE","operator":null,"country":"US","launch_date":"2023-09-01","launch_site_code":"AFETR","launch_vehicle":null,"mission":null,"orbit_class":"UNKNOWN","rcs_meters":null,"size_class":null,"mass_kg":null,"dimensions":null,"purposes":["comms"],"wikipedia_slug":null,"has_3d_model":false,"image_url":null,"decayed_at":null,"tle_current":{"epoch":"2026-09-20T10:39:14.592960Z","epoch_age_seconds":136136,"freshness":"FRESH","line1":"1 57735U 23131D   26263.44391890 -.00000189  00000+0  26862-5 0  9991","line2":"2 57735  43.0065 160.0706 0002497 255.7877 104.2698 15.27582617169617","mean_motion":15.27582617,"eccentricity":0.0002497,"inclination_deg":43.0065,"raan_deg":160.0706,"arg_perigee_deg":255.7877,"mean_anomaly_deg":104.2698,"bstar":2.6862e-6,"rev_number":16961,"period_min":94.266587219223,"perigee_km":481.3280235999,"apogee_km":484.75449602285,"semimajor_km":6861.1782598114,"source":"CELESTRAK","updated_at":"2026-09-21T09:00:33.678731Z"}}}